リニア彗星

237P/LINEAR (2023)

English version
Home page
Updated on May 6, 2023

---------------------------------------------------------------------

・ プロフィール

・ 写真集

・ 軌道要素

Epoch 2023 Feb. 25.0 TT = JDT 2460000.5
T 2023 May 14.68621 TT                                  Rudenko
q   1.9870452            (2000.0)            P               Q
n   0.14981622     Peri.   25.26142     -0.00071917     +0.97546688
a   3.5109946      Node   245.35909     -0.95368164     -0.06689242
e   0.4340506      Incl.   14.01643     -0.30081690     +0.20973737
P   6.58
>From 547 observations 2002 June 18-2023 Jan. 16, mean residual 0".8.

・ 星図

・ 光度変化

        H = 15.0  G = 0.15               [    ,-268]  (              〜2022年 8月19日)
        m1 = 0.0 + 5 logΔ + 40.0 log r  [-268, 268]  (2022年 8月19日〜2024年 2月 6日)
        H = 15.0  G = 0.15               [ 268,    ]  (2024年 2月 6日〜              )

---------------------------------------------------------------------

軌道要素はM.P.E.C. 2023-B57に掲載されたものです。
星図はステラナビゲータ Ver.10 (アストロアーツ) で作成したものです。
光度グラフはComet for Windowsで作成したものです。

---------------------------------------------------------------------

Copyright(C) Seiichi Yoshida (comet@aerith.net). All rights reserved.